Location: Borojevi?i
(45.0486°N, 16.2297°E)
Time: 16:00:56
(UTC+00:00)

Cosmos 220 Rocket - Pass Details

Date: 08 August 2020
Orbit: 575 x 617 km, 74.0° (Epoch: 19 September)

Event Time Altitude Azimuth Distance (km) Brightness Sun altitude
Rises 19:26:28 0° 338° (NNW) 2,796 8.5 -12.2°
Reaches altitude 10° 19:28:41 10° 338° (NNW) 1,894 7.5 -12.5°
Maximum altitude 19:32:55 87° 248° (WSW) 584 3.9 -13.1°
Enters shadow 19:36:06 17° 162° (SSE) 1,486 5.5 -13.5°
